North Myrtle Beach, SC

5:42 AM EST on November 21, 2019 (GMT -0500)
Grand Strand

Weather History for KCRE - August, 2019

Change the Weather History Date:

Monday, August 19, 2019

  Actual Average Record
Temperature  
Mean Temperature 82 °F 79 °F  
Max Temperature 87 °F 86 °F 94 °F (1955)
Min Temperature 77 °F 72 °F 65 °F (1960)
Degree Days  
Heating Degree Days 0 0  
Month to date heating degree days 0 0  
Since 1 June heating degree days 0 0  
Since 1 July heating degree days 0 0  
Cooling Degree Days 17 14  
Month to date cooling degree days 313 271  
Year to date cooling degree days 1605 1316  
Since 1 June cooling degree days 1212 1104  
Growing Degree Days 32 (Base 50)    
Moisture  
Dew Point 75 °F    
Average Humidity 78    
Maximum Humidity 91    
Minimum Humidity 65    
Precipitation  
Precipitation 0.00 in 0.27 in 2.18 in (2017)
Month to date precipitation 7.99 4.18  
Year to date precipitation 31.00 32.12  
Sea Level Pressure  
Sea Level Pressure 30.07 in    
Wind  
Wind Speed 10 mph (SW)    
Max Wind Speed 20 mph    
Max Gust Speed 23 mph    
Visibility 10 miles    
Events      
T = Trace of Precipitation, MM = Missing Value Source: NWS Daily Summary

Daily Weather History Graph

Daily Weather History Graph

Search for Another Location

Airport or City:

Astronomy

Aug. 19, 2019 Rise Set
Actual Time 6:39 AM EDT 7:57 PM EDT
Civil Twilight 6:13 AM EDT 8:23 PM EDT
Nautical Twilight 5:42 AM EDT 8:54 PM EDT
Astronomical Twilight 5:09 AM EDT 9:26 PM EDT
Moon 10:28 PM EDT (8/19) 10:09 AM EDT (8/19)
Length of Visible Light 14h 09m
Length of Day
13h 17m
Waning Gibbous, 85% of the Moon is Illuminated
Aug 19
Waning Gibbous
Aug 23
Last Quarter
Aug 30
New
Sep 5
First Quarter
Sep 14
Full

Hourly Weather History & Observations

Time (EDT) Temp. Heat Index Dew Point Humidity Pressure Visibility Wind Dir Wind Speed Gust Speed Precip Events Conditions
12:53 AM 80.1 °F 85.1 °F 75.0 °F 85% 30.05 in 10.0 mi West 6.9 mph - N/A   Partly Cloudy
1:53 AM 80.1 °F 85.1 °F 75.0 °F 85% 30.05 in 10.0 mi WSW 4.6 mph - N/A   Clear
2:53 AM 79.0 °F - 73.9 °F 84% 30.04 in 10.0 mi SW 6.9 mph - N/A   Clear
3:53 AM 79.0 °F - 73.9 °F 84% 30.04 in 10.0 mi WSW 6.9 mph - N/A   Clear
4:53 AM 79.0 °F - 75.0 °F 88% 30.03 in 10.0 mi WSW 4.6 mph - N/A   Clear
5:53 AM 78.1 °F - 75.0 °F 90% 30.04 in 10.0 mi WSW 5.8 mph - N/A   Clear
6:53 AM 77.0 °F - 73.9 °F 90% 30.07 in 10.0 mi WSW 4.6 mph - N/A   Clear
7:53 AM 79.0 °F - 73.9 °F 84% 30.08 in 10.0 mi WSW 4.6 mph - N/A   Scattered Clouds
8:53 AM 80.1 °F 85.1 °F 75.0 °F 85% 30.09 in 10.0 mi WNW 3.5 mph - N/A   Clear
9:53 AM 84.9 °F 91.4 °F 73.0 °F 67% 30.09 in 10.0 mi Variable 3.5 mph - N/A   Clear
10:53 AM 84.0 °F 91.9 °F 75.0 °F 74% 30.10 in 10.0 mi South 10.4 mph - N/A   Clear
11:53 AM 84.9 °F 94.1 °F 75.9 °F 74% 30.10 in 10.0 mi South 12.7 mph - N/A   Clear
12:53 PM 86.0 °F 93.8 °F 73.9 °F 67% 30.09 in 10.0 mi South 11.5 mph - N/A   Clear
1:53 PM 84.9 °F 93.3 °F 75.0 °F 72% 30.09 in 10.0 mi SSW 11.5 mph - N/A   Clear
2:53 PM 84.9 °F 94.1 °F 75.9 °F 74% 30.07 in 10.0 mi South 15.0 mph - N/A   Clear
3:53 PM 87.1 °F 97.3 °F 75.9 °F 69% 30.05 in 10.0 mi SSW 13.8 mph - N/A   Clear
4:53 PM 86.0 °F 96.0 °F 75.9 °F 72% 30.05 in 10.0 mi SSW 16.1 mph - N/A   Clear
5:53 PM 84.9 °F 94.1 °F 75.9 °F 74% 30.04 in 10.0 mi SSW 16.1 mph - N/A   Clear
6:53 PM 82.9 °F 90.2 °F 75.0 °F 77% 30.04 in 10.0 mi SSW 13.8 mph - N/A   Clear
7:53 PM 82.9 °F 89.4 °F 73.9 °F 74% 30.06 in 10.0 mi SW 11.5 mph - N/A   Clear
8:53 PM 82.9 °F 89.4 °F 73.9 °F 74% 30.08 in 10.0 mi SW 11.5 mph - N/A   Clear
9:53 PM 81.0 °F 86.2 °F 73.9 °F 79% 30.10 in 10.0 mi WSW 4.6 mph - N/A   Clear
10:53 PM 81.0 °F 85.8 °F 73.0 °F 77% 30.10 in 10.0 mi SW 12.7 mph - N/A   Clear
11:53 PM 82.0 °F 87.9 °F 73.9 °F 76% 30.10 in 10.0 mi SW 16.1 mph - N/A   Partly Cloudy